Meteo pe oră la Al-Kunajtira

Astăzi, 22 Ianuarie, Vineri

Timp Temperatura Precipitaţii Vânt Presiune Umiditate
00:00 +5°C° 0 mm 1 m/s 745 mmHg 62%
01:00 +5°C° 0 mm 1 m/s 745 mmHg 62%
02:00 +4°C° 0 mm 1 m/s 745 mmHg 61%
03:00 +4°C° 0 mm 1 m/s 745 mmHg 62%
04:00 +4°C° 0 mm 1 m/s 745 mmHg 63%
05:00 +3°C° 0 mm 1 m/s 745 mmHg 64%
06:00 +3°C° 0 mm 2 m/s 745 mmHg 64%
07:00 +3°C° 0 mm 2 m/s 745 mmHg 64%
08:00 +3°C° 0 mm 2 m/s 745 mmHg 63%
09:00 +5°C° 0 mm 2 m/s 745 mmHg 59%
10:00 +5°C° 0 mm 3 m/s 745 mmHg 54%
11:00 +7°C° 0 mm 3 m/s 745 mmHg 50%
12:00 +8°C° 0 mm 3 m/s 744 mmHg 48%
13:00 +9°C° 0 mm 3 m/s 744 mmHg 47%
14:00 +9°C° 0 mm 3 m/s 743 mmHg 45%
15:00 +8°C° 0 mm 3 m/s 743 mmHg 48%
16:00 +7°C° 0 mm 3 m/s 743 mmHg 52%
17:00 +7°C° 0 mm 2 m/s 743 mmHg 55%
18:00 +6°C° 0 mm 2 m/s 743 mmHg 56%
19:00 +6°C° 0 mm 2 m/s 743 mmHg 57%
20:00 +5°C° 0 mm 2 m/s 743 mmHg 58%
21:00 +5°C° 0 mm 2 m/s 743 mmHg 59%
22:00 +4°C° 0 mm 2 m/s 743 mmHg 60%
23:00 +4°C° 0 mm 2 m/s 743 mmHg 61%

Mâine, 23 Ianuarie, Sâmbătă

Timp Temperatura Precipitaţii Vânt Presiune Umiditate
00:00 +4°C° 0 mm 2 m/s 742 mmHg 61%
01:00 +4°C° 0 mm 2 m/s 742 mmHg 62%
02:00 +3°C° 0 mm 2 m/s 741 mmHg 63%
03:00 +3°C° 0 mm 2 m/s 741 mmHg 63%
04:00 +3°C° 0 mm 2 m/s 741 mmHg 63%
05:00 +3°C° 0 mm 2 m/s 741 mmHg 63%
06:00 +3°C° 0 mm 2 m/s 741 mmHg 62%
07:00 +3°C° 0 mm 2 m/s 741 mmHg 61%
08:00 +4°C° 0 mm 2 m/s 742 mmHg 61%
09:00 +5°C° 0 mm 2 m/s 741 mmHg 57%
10:00 +5°C° 0 mm 3 m/s 741 mmHg 53%
11:00 +8°C° 0 mm 3 m/s 741 mmHg 49%
12:00 +9°C° 0 mm 3 m/s 741 mmHg 47%
13:00 +9°C° 0 mm 3 m/s 740 mmHg 46%
14:00 +10°C° 0 mm 4 m/s 740 mmHg 44%
15:00 +9°C° 0 mm 3 m/s 740 mmHg 48%
16:00 +8°C° 0 mm 3 m/s 740 mmHg 52%
17:00 +7°C° 0 mm 3 m/s 740 mmHg 55%
18:00 +7°C° 0 mm 3 m/s 740 mmHg 57%
19:00 +5°C° 0 mm 3 m/s 740 mmHg 58%
20:00 +5°C° 0 mm 2 m/s 740 mmHg 59%
21:00 +5°C° 0 mm 2 m/s 740 mmHg 61%
22:00 +5°C° 0 mm 2 m/s 740 mmHg 62%
23:00 +4°C° 0 mm 2 m/s 740 mmHg 63%

Poimâine, 24 Ianuarie, Duminică

Timp Temperatura Precipitaţii Vânt Presiune Umiditate
00:00 +4°C° 0 mm 2 m/s 740 mmHg 64%
01:00 +4°C° 0 mm 2 m/s 740 mmHg 64%
02:00 +3°C° 0 mm 2 m/s 740 mmHg 65%
03:00 +3°C° 0 mm 2 m/s 739 mmHg 65%
04:00 +3°C° 0 mm 2 m/s 739 mmHg 65%
05:00 +3°C° 0 mm 2 m/s 739 mmHg 65%
06:00 +3°C° 0 mm 2 m/s 740 mmHg 64%
07:00 +4°C° 0 mm 2 m/s 740 mmHg 63%
08:00 +4°C° 0 mm 2 m/s 740 mmHg 62%
09:00 +4°C° 0 mm 3 m/s 740 mmHg 57%
10:00 +7°C° 0 mm 3 m/s 740 mmHg 53%
11:00 +7°C° 0 mm 4 m/s 740 mmHg 48%
12:00 +9°C° 0 mm 3 m/s 740 mmHg 47%
13:00 +10°C° 0 mm 3 m/s 739 mmHg 45%
14:00 +11°C° 0 mm 3 m/s 739 mmHg 44%
15:00 +10°C° 0 mm 3 m/s 739 mmHg 48%
16:00 +9°C° 0 mm 3 m/s 739 mmHg 52%
17:00 +8°C° 0 mm 2 m/s 739 mmHg 56%
18:00 +7°C° 0 mm 2 m/s 739 mmHg 57%
19:00 +7°C° 0 mm 2 m/s 739 mmHg 58%
20:00 +6°C° 0 mm 2 m/s 740 mmHg 59%
21:00 +6°C° 0 mm 2 m/s 740 mmHg 60%
22:00 +5°C° 0 mm 2 m/s 740 mmHg 61%
23:00 +5°C° 0 mm 2 m/s 739 mmHg 62%

25 Ianuarie, Luni

Timp Temperatura Precipitaţii Vânt Presiune Umiditate
00:00 +5°C° 0 mm 2 m/s 739 mmHg 62%
01:00 +4°C° 0 mm 2 m/s 739 mmHg 63%
02:00 +4°C° 0 mm 2 m/s 739 mmHg 64%
03:00 +4°C° 0 mm 2 m/s 739 mmHg 64%
04:00 +3°C° 0 mm 2 m/s 739 mmHg 65%
05:00 +3°C° 0 mm 2 m/s 739 mmHg 65%
06:00 +4°C° 0 mm 2 m/s 739 mmHg 64%
07:00 +4°C° 0 mm 2 m/s 739 mmHg 63%
08:00 +5°C° 0 mm 2 m/s 740 mmHg 63%
09:00 +6°C° 0 mm 2 m/s 740 mmHg 58%
10:00 +8°C° 0 mm 2 m/s 740 mmHg 53%
11:00 +9°C° 0 mm 2 m/s 740 mmHg 49%
12:00 +10°C° 0 mm 2 m/s 739 mmHg 47%
13:00 +12°C° 0 mm 2 m/s 739 mmHg 45%
14:00 +13°C° 0 mm 2 m/s 739 mmHg 44%
15:00 +12°C° 0 mm 2 m/s 739 mmHg 48%
16:00 +10°C° 0 mm 1 m/s 739 mmHg 52%
17:00 +9°C° 0 mm 1 m/s 739 mmHg 56%
18:00 +9°C° 0 mm 1 m/s 739 mmHg 57%
19:00 +9°C° 0 mm 1 m/s 739 mmHg 58%
20:00 +8°C° 0 mm 1 m/s 740 mmHg 59%
21:00 +8°C° 0 mm 1 m/s 740 mmHg 60%
22:00 +7°C° 0 mm 2 m/s 740 mmHg 61%
23:00 +6°C° 0 mm 2 m/s 740 mmHg 61%

26 Ianuarie, Marţi

Timp Temperatura Precipitaţii Vânt Presiune Umiditate
00:00 +6°C° 0 mm 2 m/s 740 mmHg 62%
01:00 +7°C° 0 mm 1 m/s 739 mmHg 63%
02:00 +7°C° 0 mm 1 m/s 739 mmHg 63%
03:00 +7°C° 0 mm 1 m/s 739 mmHg 63%
04:00 +6°C° 0 mm 1 m/s 739 mmHg 63%
05:00 +6°C° 0 mm 1 m/s 739 mmHg 64%
06:00 +7°C° 0 mm 1 m/s 739 mmHg 63%
07:00 +6°C° 0 mm 2 m/s 739 mmHg 63%
08:00 +6°C° 0 mm 2 m/s 740 mmHg 63%
09:00 +8°C° 0 mm 2 m/s 740 mmHg 58%
10:00 +9°C° 0 mm 2 m/s 739 mmHg 54%
11:00 +10°C° 0 mm 2 m/s 739 mmHg 49%
12:00 +11°C° 0 mm 3 m/s 739 mmHg 48%
13:00 +12°C° 0 mm 3 m/s 738 mmHg 46%
14:00 +13°C° 0 mm 3 m/s 738 mmHg 44%
15:00 +13°C° 0 mm 2 m/s 738 mmHg 48%
16:00 +12°C° 0 mm 2 m/s 738 mmHg 51%
17:00 +10°C° 0 mm 2 m/s 738 mmHg 54%
18:00 +10°C° 0 mm 2 m/s 738 mmHg 55%
19:00 +10°C° 0 mm 2 m/s 738 mmHg 56%
20:00 +9°C° 0 mm 2 m/s 738 mmHg 56%
21:00 +9°C° 0 mm 3 m/s 737 mmHg 58%
22:00 +9°C° 0 mm 3 m/s 737 mmHg 59%
23:00 +9°C° 0 mm 3 m/s 737 mmHg 60%

27 Ianuarie, Miercuri

Timp Temperatura Precipitaţii Vânt Presiune Umiditate
00:00 +8°C° 0 mm 3 m/s 736 mmHg 61%
01:00 +8°C° 0 mm 3 m/s 736 mmHg 62%
02:00 +8°C° 0 mm 3 m/s 735 mmHg 63%
03:00 +7°C° 0 mm 3 m/s 735 mmHg 64%
04:00 +7°C° 0 mm 3 m/s 734 mmHg 65%
05:00 +7°C° 0 mm 3 m/s 733 mmHg 66%
06:00 +7°C° 0 mm 3 m/s 733 mmHg 65%
07:00 +7°C° 0 mm 3 m/s 733 mmHg 65%
08:00 +7°C° 0 mm 3 m/s 733 mmHg 65%
09:00 +8°C° 0 mm 4 m/s 732 mmHg 60%
10:00 +10°C° 0 mm 4 m/s 732 mmHg 56%
11:00 +12°C° 0 mm 4 m/s 731 mmHg 51%
12:00 +13°C° 0 mm 4 m/s 731 mmHg 49%
13:00 +13°C° 0 mm 3 m/s 730 mmHg 47%
14:00 +14°C° 0 mm 3 m/s 729 mmHg 44%
15:00 +14°C° 0 mm 2 m/s 729 mmHg 48%
16:00 +13°C° 0 mm 2 m/s 728 mmHg 52%
17:00 +12°C° 0 mm 1 m/s 728 mmHg 57%
18:00 +12°C° 1.1 mm 2 m/s 728 mmHg 66%
19:00 +11°C° 1.1 mm 3 m/s 728 mmHg 76%
20:00 +9°C° 1.1 mm 5 m/s 727 mmHg 86%
21:00 +9°C° 0.7 mm 5 m/s 727 mmHg 85%
22:00 +10°C° 0.7 mm 6 m/s 727 mmHg 85%
23:00 +10°C° 0.7 mm 7 m/s 727 mmHg 84%
Arată mai mult

Formular de consimțământ

Meteoprog și furnizorii noștri de servicii pot stoca și accesa date personale, precum cookies, identificatori de dispozitiv sau alte tehnologii similare pe dispozitivul dumneavoastră și procesa astfel de date pentru a personaliza conținutul și reclamele, dar și pentru a oferi caracteristici de social media și pentru a analiza traficul.

  • Stocarea și/sau accesarea informațiilor pe dispozitivul dumneavoastră

    Cookies, identificatori de dispozitiv sau alte informații pot fi stocate sau accesate pe dispozitiv în scopurile indicate mai sus.

  • Reclame și conținut personalizat, evaluarea reclamelor și a conținutului, informații despre audiențe și dezvoltarea produselor

    Reclamele și conținutul pot fi personalizate pe baza unui profil. Pot fi adăugate date suplimentare pentru a personaliza mai bine reclamele și conținutul. Performanța reclamelor și conținutului poate fi măsurată. Pot fi obținute informații despre utilizatorii care au văzut reclamele și conținutul. Aceste date pot fi utilizate pentru a dezvolta sau îmbunătăți experiența utilizatorilor, sistemele și software-ul.

Dând clic pe ‘Sunt de acord’, permiteți utilizarea cookie-urilor menționate, a identificatorilor de dispozitiv, balizelor web sau altor tehnologii similare. Setările pot fi modificate din browser-ul dispozitivului dumneavoastră.

În anumite scopuri, interesele legitime pot prima asupra consimțământului. Puteți citi mai multe informații în acest sens în Politica privind Confidențialitatea Datelor și Cookie.